Location: Newark
(42.8481°N, 0.4872°E)
Time: 23:55:59
(UTC+00:00)

Transit 2A - Pass Details

Date: 30 October 2020
Orbit: 595 x 963 km, 66.7° (Epoch: 03 December)

Event Time Altitude Azimuth Distance (km) Brightness Sun altitude
Rises 00:23:40 0° 205° (SSW) 3,604 - -59.6°
Reaches altitude 10° 00:26:12 10° 204° (SSW) 2,680 - -59.5°
Maximum altitude 00:32:33 80° 118° (ESE) 981 - -59.0°
Drops below altitude 10° 00:38:50 10° 33° (NNE) 2,660 - -58.5°
Sets 00:41:20 0° 33° (NNE) 3,576 - -58.3°
Exits shadow 00:41:22 - 33° (NNE) 3,590 9.9 -58.3°
